Location: ????????
(60.4333°N, 46.4710°E)
Time: 04:24:50
(UTC+00:00)

Cosmos 371 Rocket - Pass Details

Date: 25 November 2020
Orbit: 684 x 698 km, 74.0° (Epoch: 19 January)

Event Time Altitude Azimuth Distance (km) Brightness Sun altitude
Rises 14:18:35 0° 320° (NW) 3,096 7.0 -15.4°
Reaches altitude 10° 14:21:14 10° 333° (NNW) 2,176 6.0 -15.7°
Maximum altitude 14:25:27 28° 32° (NNE) 1,317 4.3 -16.2°
Enters shadow 14:26:28 26° 53° (NE) 1,382 4.3 -16.3°
